Location: DARK SKY Beskydy - Park tmavé oblohy, www.darkskybeskydy.cz
(49.4926°N, 18.5016°E)
Time: 14:18:57
(UTC+01:00)

Vanguard 1 - Pass Details

Date: 14 November 2025
Orbit: 650 x 3821 km, 34.2° (Epoch: 07 December)

Event Time Altitude Azimuth Distance (km) Brightness Sun altitude
Rises 17:49:45 0° 242° (WSW) 7,227 15.9 -17.0°
Reaches altitude 10° 17:54:25 10° 238° (WSW) 6,480 15.2 -17.7°
Maximum altitude 18:15:29 51° 172° (S) 4,397 13.2 -21.1°
Enters shadow 18:29:30 24° 113° (ESE) 5,256 13.2 -23.4°
